Location: Newark
(63.1158°N, 8.1461°E)
Time: 09:08:16
(UTC+00:00)

Envisat - Pass Details

Date: 13 December 2019
Orbit: 764 x 766 km, 98.1° (Epoch: 28 January)

Event Time Altitude Azimuth Distance (km) Brightness Sun altitude
Rises 15:49:56 0° 135° (SE) 3,233 6.1 -10.9°
Reaches altitude 10° 15:52:18 10° 130° (SE) 2,310 5.3 -11.1°
Maximum altitude 15:57:08 46° 58° (ENE) 1,025 3.2 -11.6°
Drops below altitude 10° 16:02:01 10° 346° (NNW) 2,321 5.4 -12.1°
Sets 16:04:24 0° 341° (NNW) 3,251 6.2 -12.3°
